QPF
0.01 0.02 0.01 0.01 0.01 0.01 0.00 0.01 0.01 0.01 0.01 0.01 0.01 0.03 0.05 0.06 0.06 0.04 0.05 0.04 0.02 0.01 0.00 0.00 0.00 0.00 0.00 0.01 0.00 0.00 0.00 0.01 0.01 0.01 0.01 0.01 0.01 0.01 0.02 0.02 0.01 0.01 0.03 0.05
0.02 0.02 0.01 0.01 0.01 0.01 0.01 0.00 0.01 0.01 0.01 0.01 0.02 0.05 0.03 0.04 0.06 0.05 0.04 0.03 0.02 0.02 0.02 0.01 0.01 0.00 0.01 0.01 0.00 0.00 0.01 0.01 0.01 0.00 0.01 0.01 0.01 0.01 0.01 0.01 0.01 0.01 0.02 0.04
0.01 0.01 0.01 0.00 0.00 0.01 0.01 0.01 0.01 0.01 0.01 0.01 0.02 0.05 0.05 0.04 0.04 0.05 0.05 0.04 0.02 0.02 0.02 0.02 0.01 0.01 0.01 0.01 0.00 0.01 0.01 0.01 0.01 0.01 0.01 0.01 0.01 0.02 0.02 0.02 0.02 0.01 0.01 0.02
0.00 0.00 0.01 0.01 0.00 0.01 0.01 0.01 0.01 0.01 0.01 0.02 0.02 0.03 0.06 0.06 0.04 0.04 0.04 0.03 0.02 0.01 0.02 0.02 0.01 0.01 0.01 0.00 0.00 0.01 0.01 0.01 0.01 0.03 0.03 0.02 0.03 0.03 0.03 0.03 0.03 0.02 0.02 0.02
0.00 0.00 0.01 0.01 0.01 0.01 0.01 0.01 0.01 0.01 0.01 0.01 0.01 0.03 0.06 0.06 0.04 0.04 0.05 0.03 0.02 0.02 0.02 0.03 0.03 0.02 0.01 0.00 0.00 0.00 0.01 0.02 0.03 0.05 0.04 0.03 0.03 0.03 0.03 0.03 0.03 0.03 0.04 0.04
0.00 0.00 0.00 0.01 0.01 0.01 0.01 0.01 0.01 0.01 0.01 0.02 0.02 0.02 0.03 0.04 0.04 0.04 0.04 0.03 0.03 0.03 0.06 0.09 0.05 0.02 0.02 0.01 0.00 0.00 0.01 0.03 0.04 0.04 0.03 0.03 0.02 0.03 0.03 0.03 0.03 0.02 0.03 0.03
0.00 0.00 0.01 0.00 0.01 0.01 0.01 0.02 0.02 0.02 0.02 0.04 0.02 0.02 0.03 0.03 0.03 0.03 0.04 0.03 0.02 0.02 0.05 0.10 0.09 0.05 0.03 0.02 0.01 0.01 0.02 0.02 0.03 0.03 0.02 0.01 0.01 0.01 0.01 0.02 0.02 0.02 0.02 0.01
0.01 0.01 0.00 0.00 0.01 0.01 0.01 0.02 0.02 0.02 0.02 0.02 0.02 0.02 0.02 0.03 0.03 0.03 0.03 0.03 0.03 0.03 0.05 0.05 0.08 0.07 0.08 0.05 0.04 0.03 0.03 0.03 0.02 0.02 0.02 0.01 0.01 0.01 0.01 0.01 0.03 0.03 0.02 0.03
0.01 0.01 0.00 0.00 0.00 0.00 0.00 0.01 0.02 0.02 0.01 0.01 0.03 0.03 0.02 0.02 0.03 0.04 0.04 0.07 0.11 0.09 0.05 0.03 0.03 0.04 0.05 0.07 0.09 0.06 0.03 0.03 0.05 0.06 0.06 0.05 0.04 0.04 0.04 0.04 0.04 0.04 0.04 0.03
0.00 0.00 0.00 0.00 0.00 0.00 0.00 0.00 0.01 0.01 0.01 0.01 0.03 0.03 0.02 0.02 0.02 0.02 0.06 0.08 0.07 0.06 0.05 0.03 0.02 0.03 0.05 0.07 0.10 0.09 0.05 0.06 0.08 0.11 0.10 0.09 0.09 0.10 0.09 0.08 0.07 0.06 0.05 0.03
0.00 0.00 0.00 0.00 0.00 0.00 0.00 0.00 0.01 0.01 0.01 0.01 0.02 0.03 0.01 0.01 0.01 0.02 0.03 0.04 0.03 0.03 0.02 0.02 0.03 0.06 0.11 0.09 0.07 0.06 0.05 0.07 0.09 0.11 0.12 0.12 0.11 0.12 0.13 0.11 0.09 0.07 0.06 0.06
0.00 0.00 0.00 0.00 0.00 0.00 0.00 0.00 0.01 0.01 0.01 0.01 0.01 0.02 0.01 0.01 0.01 0.03 0.05 0.06 0.05 0.04 0.04 0.02 0.03 0.04 0.05 0.09 0.12 0.10 0.07 0.05 0.05 0.06 0.06 0.06 0.06 0.07 0.08 0.07 0.08 0.07 0.08 0.09
0.00 0.00 0.00 0.00 0.00 0.00 0.00 0.00 0.00 0.00 0.00 0.00 0.01 0.03 0.02 0.02 0.02 0.04 0.05 0.08 0.07 0.05 0.05 0.05 0.03 0.03 0.02 0.03 0.05 0.10 0.15 0.10 0.07 0.09 0.08 0.08 0.10 0.12 0.10 0.07 0.08 0.10 0.10 0.12
0.00 0.00 0.00 0.00 0.00 0.00 0.00 0.00 0.00 0.00 0.00 0.00 0.00 0.01 0.01 0.01 0.01 0.02 0.04 0.07 0.05 0.05 0.05 0.04 0.03 0.03 0.02 0.02 0.02 0.03 0.07 0.10 0.09 0.10 0.12 0.10 0.11 0.11 0.11 0.10 0.11 0.12 0.14 0.18
0.00 0.00 0.00 0.00 0.00 0.00 0.00 0.00 0.00 0.00 0.00 0.00 0.00 0.01 0.01 0.01 0.01 0.03 0.05 0.04 0.03 0.03 0.03 0.02 0.02 0.02 0.02 0.02 0.02 0.03 0.03 0.04 0.06 0.08 0.10 0.17 0.15 0.10 0.09 0.10 0.11 0.11 0.12 0.12
0.00 0.00 0.00 0.00 0.00 0.00 0.00 0.00 0.01 0.01 0.01 0.00 0.00 0.01 0.02 0.02 0.02 0.06 0.04 0.03 0.01 0.02 0.02 0.03 0.01 0.01 0.01 0.01 0.02 0.02 0.03 0.06 0.07 0.07 0.07 0.08 0.10 0.11 0.11 0.10 0.10 0.11 0.10 0.07
0.00 0.00 0.00 0.00 0.00 0.01 0.01 0.01 0.01 0.00 0.01 0.01 0.01 0.01 0.01 0.01 0.01 0.05 0.05 0.02 0.02 0.03 0.04 0.04 0.01 0.01 0.01 0.01 0.02 0.02 0.03 0.06 0.09 0.07 0.07 0.06 0.09 0.12 0.11 0.07 0.05 0.04 0.05 0.05
0.00 0.00 0.00 0.00 0.00 0.00 0.01 0.01 0.02 0.01 0.00 0.00 0.01 0.01 0.01 0.01 0.01 0.01 0.03 0.03 0.01 0.02 0.04 0.03 0.01 0.01 0.01 0.02 0.02 0.03 0.04 0.06 0.08 0.09 0.07 0.06 0.06 0.07 0.12 0.09 0.06 0.06 0.08 0.08
0.00 0.00 0.00 0.00 0.00 0.00 0.01 0.01 0.01 0.00 0.00 0.01 0.01 0.01 0.01 0.01 0.02 0.02 0.02 0.02 0.01 0.03 0.04 0.02 0.01 0.01 0.01 0.03 0.04 0.04 0.04 0.05 0.05 0.04 0.05 0.05 0.05 0.04 0.05 0.05 0.05 0.06 0.06 0.06
0.00 0.00 0.01 0.00 0.00 0.00 0.00 0.00 0.00 0.00 0.01 0.01 0.01 0.01 0.01 0.02 0.03 0.02 0.02 0.02 0.02 0.02 0.02 0.01 0.02 0.02 0.02 0.02 0.01 0.01 0.01 0.01 0.02 0.02 0.02 0.04 0.04 0.04 0.05 0.05 0.05 0.06 0.06 0.07
0.00 0.01 0.01 0.01 0.00 0.00 0.00 0.00 0.00 0.01 0.01 0.01 0.01 0.00 0.01 0.01 0.02 0.02 0.01 0.01 0.01 0.01 0.02 0.02 0.03 0.04 0.02 0.01 0.01 0.00 0.00 0.01 0.01 0.01 0.02 0.03 0.06 0.07 0.09 0.09 0.10 0.10 0.12 0.13
0.00 0.01 0.01 0.01 0.01 0.01 0.01 0.01 0.01 0.01 0.00 0.00 0.00 0.00 0.00 0.01 0.01 0.01 0.01 0.01 0.01 0.02 0.03 0.04 0.05 0.04 0.02 0.01 0.01 0.01 0.01 0.01 0.02 0.02 0.03 0.04 0.06 0.07 0.08 0.10 0.17 0.18 0.16 0.12
0.00 0.01 0.01 0.01 0.02 0.01 0.01 0.01 0.00 0.00 0.00 0.00 0.00 0.00 0.01 0.01 0.01 0.01 0.02 0.02 0.05 0.07 0.05 0.04 0.05 0.04 0.02 0.01 0.02 0.02 0.01 0.02 0.02 0.02 0.03 0.05 0.06 0.06 0.10 0.14 0.18 0.18 0.15 0.09
0.00 0.01 0.01 0.01 0.02 0.01 0.00 0.00 0.00 0.00 0.00 0.00 0.00 0.00 0.00 0.01 0.01 0.02 0.02 0.06 0.12 0.08 0.03 0.02 0.01 0.02 0.01 0.01 0.03 0.03 0.02 0.03 0.05 0.05 0.06 0.07 0.07 0.05 0.07 0.10 0.13 0.14 0.10 0.06
0.00 0.01 0.01 0.01 0.02 0.02 0.02 0.01 0.01 0.01 0.00 0.00 0.00 0.00 0.00 0.00 0.00 0.01 0.01 0.02 0.05 0.04 0.02 0.02 0.03 0.03 0.02 0.02 0.03 0.05 0.04 0.02 0.03 0.04 0.06 0.07 0.06 0.05 0.06 0.07 0.10 0.11 0.10 0.08
0.00 0.01 0.01 0.03 0.03 0.03 0.02 0.03 0.03 0.01 0.01 0.00 0.01 0.01 0.00 0.00 0.00 0.00 0.01 0.01 0.01 0.01 0.02 0.02 0.03 0.05 0.06 0.07 0.06 0.04 0.03 0.02 0.02 0.03 0.03 0.04 0.04 0.04 0.04 0.05 0.05 0.07 0.09 0.09
MSLP
1007.04 1008.03 1008.91 1009.70 1010.42 1011.12 1011.84 1012.62 1013.45 1014.28 1015.06 1015.72 1016.23 1016.54 1016.67 1016.64 1016.52 1016.36 1016.21 1016.09 1016.03 1015.99 1015.96 1015.90 1015.80 1015.65 1015.48 1015.32 1015.19 1015.14 1015.18 1015.32 1015.53 1015.78 1016.04 1016.26 1016.43 1016.53 1016.56 1016.56 1016.54 1016.53 1016.55 1016.60
1007.60 1008.38 1009.03 1009.59 1010.12 1010.70 1011.40 1012.23 1013.17 1014.17 1015.13 1015.95 1016.58 1016.96 1017.11 1017.05 1016.88 1016.66 1016.47 1016.34 1016.28 1016.28 1016.29 1016.27 1016.18 1016.02 1015.80 1015.56 1015.34 1015.19 1015.16 1015.24 1015.43 1015.68 1015.95 1016.19 1016.36 1016.46 1016.47 1016.42 1016.36 1016.31 1016.30 1016.34
1007.99 1008.55 1008.97 1009.31 1009.69 1010.19 1010.89 1011.80 1012.89 1014.07 1015.22 1016.20 1016.94 1017.37 1017.51 1017.40 1017.16 1016.86 1016.62 1016.46 1016.42 1016.46 1016.53 1016.57 1016.53 1016.38 1016.14 1015.85 1015.56 1015.34 1015.23 1015.25 1015.40 1015.63 1015.90 1016.14 1016.32 1016.41 1016.41 1016.34 1016.25 1016.16 1016.13 1016.15
1008.21 1008.56 1008.76 1008.93 1009.20 1009.66 1010.41 1011.44 1012.71 1014.07 1015.39 1016.51 1017.32 1017.77 1017.87 1017.67 1017.32 1016.92 1016.59 1016.40 1016.36 1016.44 1016.58 1016.70 1016.73 1016.64 1016.43 1016.13 1015.81 1015.53 1015.37 1015.34 1015.44 1015.65 1015.91 1016.16 1016.35 1016.45 1016.45 1016.37 1016.26 1016.16 1016.10 1016.10
1008.32 1008.46 1008.49 1008.54 1008.74 1009.23 1010.06 1011.24 1012.67 1014.21 1015.67 1016.89 1017.74 1018.16 1018.16 1017.84 1017.34 1016.81 1016.37 1016.11 1016.06 1016.17 1016.39 1016.60 1016.74 1016.74 1016.59 1016.33 1016.02 1015.73 1015.53 1015.47 1015.55 1015.74 1016.00 1016.25 1016.46 1016.58 1016.59 1016.53 1016.42 1016.31 1016.23 1016.20
1008.37 1008.34 1008.24 1008.22 1008.41 1008.95 1009.89 1011.21 1012.80 1014.47 1016.04 1017.30 1018.14 1018.48 1018.36 1017.88 1017.20 1016.51 1015.95 1015.61 1015.53 1015.68 1015.96 1016.28 1016.53 1016.65 1016.60 1016.42 1016.15 1015.88 1015.69 1015.61 1015.68 1015.86 1016.12 1016.39 1016.62 1016.76 1016.81 1016.77 1016.67 1016.57 1016.48 1016.43
1008.41 1008.25 1008.07 1008.02 1008.24 1008.85 1009.90 1011.34 1013.04 1014.81 1016.41 1017.67 1018.44 1018.68 1018.41 1017.76 1016.91 1016.06 1015.38 1014.96 1014.85 1015.02 1015.37 1015.79 1016.16 1016.40 1016.48 1016.39 1016.20 1015.98 1015.81 1015.75 1015.81 1015.99 1016.25 1016.53 1016.78 1016.96 1017.04 1017.03 1016.96 1016.87 1016.78 1016.72
1008.46 1008.22 1008.00 1007.95 1008.22 1008.91 1010.04 1011.56 1013.31 1015.10 1016.69 1017.89 1018.57 1018.68 1018.27 1017.47 1016.48 1015.51 1014.72 1014.25 1014.12 1014.30 1014.71 1015.22 1015.70 1016.06 1016.25 1016.27 1016.17 1016.01 1015.88 1015.83 1015.90 1016.08 1016.34 1016.64 1016.90 1017.11 1017.22 1017.24 1017.20 1017.12 1017.04 1016.98
1008.51 1008.24 1008.02 1008.01 1008.32 1009.06 1010.23 1011.77 1013.51 1015.24 1016.76 1017.86 1018.42 1018.41 1017.89 1016.99 1015.92 1014.88 1014.06 1013.55 1013.42 1013.63 1014.08 1014.66 1015.22 1015.68 1015.97 1016.08 1016.06 1015.97 1015.88 1015.86 1015.93 1016.11 1016.37 1016.66 1016.94 1017.16 1017.30 1017.35 1017.33 1017.28 1017.21 1017.15
1008.51 1008.26 1008.09 1008.13 1008.49 1009.25 1010.40 1011.88 1013.53 1015.15 1016.53 1017.50 1017.95 1017.85 1017.27 1016.34 1015.26 1014.23 1013.43 1012.95 1012.84 1013.07 1013.56 1014.17 1014.79 1015.30 1015.66 1015.85 1015.89 1015.85 1015.81 1015.81 1015.89 1016.07 1016.31 1016.60 1016.87 1017.10 1017.25 1017.32 1017.33 1017.30 1017.24 1017.20
1008.45 1008.27 1008.18 1008.28 1008.67 1009.41 1010.49 1011.85 1013.33 1014.77 1015.97 1016.79 1017.13 1016.97 1016.39 1015.51 1014.51 1013.57 1012.85 1012.45 1012.39 1012.65 1013.16 1013.78 1014.40 1014.93 1015.32 1015.55 1015.64 1015.64 1015.63 1015.66 1015.75 1015.93 1016.17 1016.44 1016.71 1016.93 1017.09 1017.18 1017.20 1017.19 1017.16 1017.13
1008.31 1008.26 1008.27 1008.44 1008.84 1009.53 1010.49 1011.66 1012.93 1014.13 1015.11 1015.76 1016.00 1015.83 1015.30 1014.53 1013.68 1012.90 1012.32 1012.03 1012.04 1012.33 1012.83 1013.43 1014.03 1014.54 1014.92 1015.15 1015.28 1015.32 1015.35 1015.41 1015.53 1015.72 1015.96 1016.23 1016.49 1016.71 1016.87 1016.96 1017.01 1017.02 1017.01 1017.01
1008.16 1008.25 1008.38 1008.62 1009.02 1009.62 1010.42 1011.36 1012.36 1013.29 1014.04 1014.51 1014.66 1014.49 1014.05 1013.43 1012.77 1012.19 1011.79 1011.63 1011.72 1012.04 1012.51 1013.06 1013.60 1014.06 1014.41 1014.65 1014.79 1014.87 1014.95 1015.07 1015.23 1015.45 1015.71 1015.98 1016.25 1016.47 1016.63 1016.74 1016.80 1016.83 1016.85 1016.86
1008.07 1008.32 1008.57 1008.86 1009.24 1009.73 1010.33 1011.02 1011.71 1012.35 1012.85 1013.14 1013.20 1013.04 1012.70 1012.26 1011.81 1011.45 1011.23 1011.20 1011.37 1011.69 1012.13 1012.61 1013.07 1013.46 1013.77 1014.00 1014.17 1014.31 1014.45 1014.64 1014.87 1015.14 1015.44 1015.74 1016.02 1016.25 1016.43 1016.55 1016.62 1016.67 1016.71 1016.74
1008.13 1008.52 1008.87 1009.19 1009.53 1009.88 1010.27 1010.68 1011.08 1011.41 1011.66 1011.77 1011.74 1011.59 1011.35 1011.08 1010.83 1010.66 1010.61 1010.71 1010.93 1011.25 1011.64 1012.03 1012.41 1012.73 1013.00 1013.23 1013.44 1013.64 1013.88 1014.16 1014.48 1014.83 1015.18 1015.53 1015.83 1016.08 1016.27 1016.40 1016.49 1016.55 1016.59 1016.64
1008.42 1008.91 1009.31 1009.63 1009.89 1010.09 1010.26 1010.40 1010.50 1010.55 1010.55 1010.49 1010.38 1010.23 1010.07 1009.94 1009.86 1009.86 1009.95 1010.13 1010.39 1010.70 1011.02 1011.35 1011.64 1011.91 1012.15 1012.39 1012.65 1012.94 1013.28 1013.66 1014.08 1014.52 1014.94 1015.33 1015.67 1015.93 1016.13 1016.27 1016.37 1016.43 1016.48 1016.52
1008.95 1009.47 1009.86 1010.14 1010.29 1010.34 1010.29 1010.17 1010.00 1009.80 1009.59 1009.37 1009.18 1009.02 1008.93 1008.90 1008.95 1009.08 1009.27 1009.52 1009.79 1010.07 1010.34 1010.59 1010.83 1011.05 1011.29 1011.56 1011.88 1012.25 1012.70 1013.19 1013.70 1014.22 1014.71 1015.14 1015.50 1015.77 1015.97 1016.11 1016.21 1016.27 1016.31 1016.34
1009.67 1010.14 1010.47 1010.64 1010.67 1010.54 1010.30 1009.96 1009.57 1009.16 1008.77 1008.44 1008.18 1008.02 1007.96 1008.01 1008.15 1008.36 1008.62 1008.90 1009.17 1009.42 1009.65 1009.85 1010.04 1010.25 1010.49 1010.80 1011.18 1011.65 1012.18 1012.76 1013.35 1013.93 1014.45 1014.91 1015.27 1015.55 1015.74 1015.86 1015.94 1015.99 1016.02 1016.04
1010.45 1010.80 1011.00 1011.04 1010.91 1010.63 1010.22 1009.71 1009.15 1008.60 1008.09 1007.68 1007.38 1007.22 1007.19 1007.28 1007.48 1007.74 1008.03 1008.32 1008.58 1008.81 1009.00 1009.17 1009.34 1009.55 1009.82 1010.17 1010.61 1011.14 1011.74 1012.37 1013.01 1013.61 1014.15 1014.60 1014.94 1015.20 1015.36 1015.47 1015.53 1015.56 1015.57 1015.57
1011.13 1011.31 1011.35 1011.23 1010.95 1010.52 1009.98 1009.35 1008.70 1008.07 1007.51 1007.06 1006.76 1006.60 1006.59 1006.72 1006.94 1007.21 1007.51 1007.79 1008.04 1008.24 1008.42 1008.58 1008.75 1008.97 1009.27 1009.66 1010.14 1010.72 1011.35 1012.01 1012.65 1013.24 1013.75 1014.17 1014.48 1014.69 1014.82 1014.90 1014.94 1014.95 1014.96 1014.95
1011.59 1011.57 1011.42 1011.13 1010.72 1010.18 1009.55 1008.87 1008.19 1007.55 1006.99 1006.55 1006.27 1006.13 1006.14 1006.27 1006.49 1006.76 1007.04 1007.30 1007.53 1007.72 1007.89 1008.05 1008.24 1008.48 1008.81 1009.23 1009.74 1010.33 1010.97 1011.61 1012.22 1012.77 1013.24 1013.60 1013.86 1014.02 1014.12 1014.18 1014.20 1014.21 1014.21 1014.21
1011.72 1011.50 1011.17 1010.74 1010.21 1009.61 1008.95 1008.28 1007.62 1007.02 1006.52 1006.13 1005.88 1005.77 1005.79 1005.91 1006.11 1006.35 1006.59 1006.82 1007.03 1007.20 1007.37 1007.54 1007.75 1008.03 1008.38 1008.82 1009.34 1009.92 1010.53 1011.14 1011.70 1012.19 1012.59 1012.89 1013.10 1013.23 1013.31 1013.35 1013.37 1013.40 1013.42 1013.44
1011.51 1011.12 1010.64 1010.09 1009.50 1008.87 1008.24 1007.62 1007.04 1006.52 1006.10 1005.78 1005.58 1005.49 1005.50 1005.60 1005.75 1005.94 1006.13 1006.31 1006.48 1006.65 1006.81 1007.00 1007.24 1007.54 1007.92 1008.37 1008.89 1009.44 1010.02 1010.57 1011.07 1011.50 1011.84 1012.09 1012.27 1012.38 1012.45 1012.50 1012.54 1012.59 1012.65 1012.70
1011.01 1010.47 1009.89 1009.27 1008.66 1008.06 1007.49 1006.96 1006.49 1006.09 1005.77 1005.52 1005.36 1005.28 1005.27 1005.32 1005.41 1005.52 1005.64 1005.77 1005.90 1006.04 1006.21 1006.41 1006.67 1007.00 1007.40 1007.85 1008.36 1008.89 1009.42 1009.92 1010.36 1010.74 1011.04 1011.27 1011.43 1011.54 1011.63 1011.71 1011.79 1011.88 1011.98 1012.08
1010.29 1009.67 1009.03 1008.40 1007.81 1007.27 1006.80 1006.40 1006.06 1005.78 1005.55 1005.38 1005.25 1005.16 1005.11 1005.09 1005.09 1005.12 1005.16 1005.22 1005.31 1005.43 1005.59 1005.81 1006.10 1006.44 1006.85 1007.31 1007.80 1008.30 1008.80 1009.25 1009.66 1010.00 1010.28 1010.51 1010.68 1010.82 1010.95 1011.07 1011.20 1011.33 1011.47 1011.61
1009.48 1008.81 1008.16 1007.57 1007.04 1006.61 1006.26 1005.99 1005.79 1005.63 1005.49 1005.37 1005.26 1005.16 1005.05 1004.95 1004.87 1004.80 1004.76 1004.76 1004.80 1004.90 1005.07 1005.30 1005.60 1005.96 1006.38 1006.83 1007.31 1007.79 1008.25 1008.68 1009.06 1009.39 1009.67 1009.91 1010.11 1010.29 1010.46 1010.63 1010.80 1010.97 1011.14 1011.29
Thickness
5831 5812 5800 5808 5815 5814 5808 5801 5800 5811 5827 5817 5808 5806 5810 5815 5813 5809 5806 5805 5803 5804 5807 5808 5806 5804 5800 5796 5792 5789 5786 5784 5781 5777 5773 5770 5768 5768 5768 5768 5768 5768 5767 5766
5809 5803 5823 5831 5829 5821 5813 5803 5803 5815 5828 5818 5805 5804 5811 5814 5810 5809 5807 5805 5804 5802 5802 5803 5803 5802 5799 5794 5791 5788 5785 5782 5780 5777 5774 5771 5769 5767 5767 5767 5766 5766 5766 5765
5803 5819 5838 5832 5824 5817 5813 5807 5806 5807 5820 5819 5805 5791 5798 5807 5810 5810 5809 5809 5808 5806 5801 5801 5799 5797 5795 5792 5789 5788 5784 5781 5779 5776 5772 5769 5766 5764 5762 5762 5762 5764 5764 5763
5815 5833 5834 5825 5820 5820 5805 5826 5825 5817 5799 5786 5794 5764 5784 5794 5796 5800 5802 5804 5805 5805 5803 5800 5796 5793 5792 5791 5790 5786 5782 5779 5777 5774 5770 5765 5761 5757 5758 5759 5760 5761 5761 5760
5813 5829 5826 5819 5826 5829 5821 5835 5826 5816 5799 5784 5786 5767 5772 5788 5784 5791 5798 5802 5803 5803 5801 5798 5795 5793 5792 5791 5788 5784 5780 5776 5774 5771 5768 5764 5761 5759 5759 5758 5757 5757 5757 5757
5823 5839 5837 5833 5841 5841 5836 5824 5812 5799 5782 5762 5776 5765 5762 5777 5786 5791 5796 5800 5802 5802 5800 5797 5794 5792 5790 5789 5786 5782 5777 5774 5772 5769 5766 5763 5760 5757 5755 5754 5753 5753 5753 5753
5808 5824 5838 5842 5826 5830 5821 5787 5761 5756 5746 5751 5774 5767 5767 5793 5802 5801 5798 5799 5802 5802 5798 5793 5789 5788 5786 5784 5782 5779 5775 5771 5769 5767 5764 5761 5759 5756 5754 5751 5750 5749 5748 5748
5784 5789 5823 5834 5825 5813 5811 5790 5757 5742 5737 5748 5766 5761 5776 5801 5807 5808 5806 5803 5801 5799 5797 5793 5790 5787 5785 5782 5780 5777 5772 5768 5766 5763 5761 5759 5757 5754 5752 5750 5749 5747 5746 5745
5784 5788 5827 5838 5841 5828 5808 5794 5789 5762 5755 5745 5749 5763 5779 5796 5798 5799 5799 5797 5796 5796 5795 5791 5787 5785 5782 5780 5777 5775 5770 5766 5762 5760 5756 5754 5752 5751 5749 5748 5746 5744 5743 5742
5802 5790 5812 5831 5835 5829 5821 5805 5777 5758 5740 5732 5742 5749 5756 5775 5783 5790 5789 5788 5790 5790 5789 5786 5784 5782 5779 5776 5774 5771 5768 5763 5760 5757 5753 5751 5749 5747 5746 5744 5741 5740 5738 5738
5808 5787 5794 5806 5803 5800 5805 5797 5778 5758 5751 5733 5725 5740 5783 5782 5785 5784 5786 5787 5786 5786 5785 5783 5781 5779 5776 5772 5769 5767 5763 5760 5756 5753 5750 5748 5746 5743 5740 5739 5738 5736 5734 5732
5803 5782 5771 5787 5809 5818 5807 5796 5779 5756 5749 5743 5732 5744 5794 5790 5790 5787 5785 5785 5785 5783 5781 5780 5778 5775 5771 5768 5765 5762 5760 5757 5754 5751 5747 5744 5741 5738 5736 5735 5734 5732 5729 5728
5797 5771 5750 5758 5775 5794 5794 5795 5787 5769 5752 5739 5732 5746 5786 5784 5783 5784 5783 5782 5781 5779 5776 5772 5771 5768 5766 5764 5762 5759 5756 5754 5751 5748 5743 5740 5736 5733 5731 5730 5729 5727 5725 5723
5799 5766 5752 5746 5756 5774 5778 5787 5787 5768 5745 5740 5745 5752 5766 5770 5772 5775 5776 5777 5775 5774 5770 5766 5763 5761 5760 5759 5757 5755 5753 5751 5747 5743 5738 5735 5733 5730 5728 5726 5725 5723 5721 5719
5786 5762 5766 5768 5777 5780 5779 5781 5783 5772 5763 5751 5752 5754 5761 5768 5770 5771 5772 5770 5769 5766 5763 5760 5757 5755 5753 5752 5751 5750 5749 5746 5743 5738 5734 5732 5730 5727 5724 5722 5720 5719 5716 5714
5771 5760 5761 5761 5773 5774 5770 5775 5776 5773 5770 5762 5757 5753 5768 5770 5770 5767 5766 5765 5762 5761 5760 5757 5754 5752 5750 5748 5745 5744 5743 5741 5738 5733 5730 5727 5724 5722 5719 5717 5715 5713 5710 5708
5757 5751 5741 5737 5754 5757 5744 5761 5765 5763 5765 5761 5749 5754 5763 5759 5760 5760 5760 5759 5757 5756 5755 5753 5751 5748 5746 5744 5742 5738 5737 5736 5732 5728 5725 5722 5719 5717 5715 5714 5710 5707 5704 5703
5751 5739 5727 5725 5733 5720 5742 5769 5770 5762 5760 5763 5760 5760 5761 5760 5760 5760 5760 5756 5753 5752 5750 5748 5746 5744 5741 5740 5738 5735 5732 5729 5726 5722 5720 5717 5715 5712 5710 5708 5705 5702 5700 5697
5753 5736 5719 5710 5709 5718 5741 5760 5761 5751 5743 5757 5756 5756 5756 5757 5753 5750 5756 5755 5752 5751 5748 5745 5743 5740 5737 5734 5732 5729 5725 5723 5720 5717 5715 5713 5710 5707 5704 5702 5700 5699 5696 5693
5739 5732 5715 5705 5703 5702 5727 5756 5767 5752 5729 5751 5752 5749 5748 5746 5728 5734 5748 5750 5748 5747 5744 5741 5738 5734 5730 5727 5725 5721 5718 5716 5714 5712 5711 5709 5706 5703 5701 5699 5697 5695 5692 5689
5714 5710 5703 5697 5695 5705 5734 5753 5755 5722 5720 5745 5748 5747 5744 5737 5735 5740 5744 5743 5742 5740 5738 5735 5731 5726 5723 5721 5717 5713 5711 5709 5710 5709 5707 5705 5702 5700 5698 5695 5693 5690 5687 5684
5699 5695 5693 5690 5686 5696 5735 5739 5727 5725 5739 5743 5743 5743 5740 5737 5739 5739 5738 5735 5733 5731 5729 5727 5723 5719 5717 5714 5711 5707 5705 5706 5704 5703 5701 5699 5697 5696 5694 5690 5687 5685 5681 5678
5698 5699 5694 5693 5696 5715 5727 5728 5733 5734 5733 5735 5735 5737 5736 5732 5730 5730 5729 5728 5726 5724 5722 5720 5716 5712 5710 5708 5706 5701 5701 5700 5698 5696 5693 5692 5691 5689 5686 5683 5680 5677 5674 5672
5697 5703 5694 5691 5701 5711 5718 5723 5728 5730 5730 5731 5732 5732 5730 5726 5724 5723 5722 5720 5718 5717 5714 5711 5708 5704 5702 5702 5700 5697 5696 5693 5691 5688 5686 5685 5682 5680 5679 5676 5674 5671 5669 5666
5688 5691 5684 5683 5695 5702 5708 5713 5718 5722 5725 5726 5726 5726 5725 5721 5717 5715 5714 5712 5711 5710 5707 5704 5700 5697 5695 5693 5692 5689 5688 5686 5683 5681 5680 5678 5676 5673 5671 5669 5667 5666 5665 5664
5681 5679 5675 5675 5688 5689 5696 5706 5712 5712 5713 5715 5715 5715 5717 5715 5712 5710 5707 5706 5704 5702 5699 5696 5693 5690 5688 5686 5684 5683 5682 5679 5676 5674 5672 5671 5669 5666 5664 5662 5661 5661 5660 5659